Regional Weather Roundup
Issued by NWS

Home | Current Version | Previous Version | Graphics & Text | Print | Product List | Glossary On
Versions: 1 2 3 4 5 6 7 8 9 10 11 12 13 14 15 16 17 18 19 20 21 22 23 24 25 26 27 28 29 30 31 32 33 34 35 36 37 38 39 40 41 42 43 44 45 46 47 48 49 50
000
ASUS43 KFSD 061810
RWRSD

WEATHER ROUNDUP FOR SOUTH DAKOTA
NATIONAL WEATHER SERVICE SIOUX FALLS SD
100 PM CDT MON JUL 06 2015

NOTE: "FAIR" INDICATES FEW OR NO CLOUDS BELOW 12,000 FEET WITH NO
SIGNIFICANT WEATHER AND/OR OBSTRUCTIONS TO VISIBILITY.


SDZ001>005-009-010-012>017-061900-
NORTHWEST AND NORTH CENTRAL SOUTH DAKOTA

CITY           SKY/WX    TMP DP  RH WIND       PRES   REMARKS
BUFFALO          N/A     67  48  50 NW8       30.16S
FAITH            N/A     69  52  54 NW10      30.19R
MOBRIDGE       SUNNY     74  53  48 N13       30.12S
$$

SDZ012>016-024>037-041>051-057-063-072>074-061900-
SOUTHWEST AND SOUTH CENTRAL SOUTH DAKOTA

CITY           SKY/WX    TMP DP  RH WIND       PRES   REMARKS
RAPID CTY ARPT CLOUDY    66  54  65 N8        30.24S
PIERRE         SUNNY     74  53  48 N20       30.12R
CUSTER         CLOUDY    58  48  69 N3        30.31R HAZE
ELLSWORTH AFB  CLOUDY    64  53  66 NW12      30.24R
PHILIP         MOSUNNY   72  56  57 N8        30.18R
PINE RIDGE     CLOUDY    67  54  63 N10       30.23S HAZE
SPEARFISH      CLOUDY    59  52  77 W6        30.28S
WINNER         FAIR      75  53  46 N18       30.12S HAZE
$$

SDZ004>011-016>023-039-040-061900-
NORTHEAST SOUTH DAKOTA

CITY           SKY/WX    TMP DP  RH WIND       PRES   REMARKS
ABERDEEN       MOSUNNY   70  55  59 N17G24    30.09S HAZE
WATERTOWN      CLOUDY    69  57  65 N21       30.05R HAZE
BROOKINGS      CLOUDY    68  57  68 N20G28    30.04R
SISSETON         N/A     68  53  58 N16G25    30.06R
$$

SDZ017-020-022-023-036>040-048>070-061900-
SOUTHEAST SOUTH DAKOTA

CITY           SKY/WX    TMP DP  RH WIND       PRES   REMARKS
SIOUX FALLS    CLOUDY    70  62  76 N17G26    29.99R HAZE
HURON          CLOUDY    72  61  68 N18       30.06R HAZE
CHAMBERLAIN    MOSUNNY   73  55  52 N17G25    30.10R
MITCHELL         N/A     74  63  68 N21G28    30.05R HAZE
YANKTON        CLOUDY    72  63  73 N16       29.99R
$$

ABBREVIATIONS USED IN REMARKS
   TC - TEMPERATURE IN CELSIUS
  WCI - WIND CHILL INDEX
   HX - HEAT INDEX
  VSB - VISIBILITY



USA.gov is the U.S. government's official web portal to all federal, state and local government web resources and services.